Total_Precipitation_Accumulation
1.22 1.15 0.88 1.16 1.16 1.51 1.65 2.02 2.68 2.52 2.62 3.32 3.31 2.75 2.51 2.06 1.99 1.86 1.50 1.30 1.38 1.81 1.89 1.87 1.88 1.83 2.11 2.13 2.01 1.94 1.77 1.86 1.70 0.90 0.86 0.78 0.69 0.57 0.54 0.68 0.72 0.71 0.76
2.63 2.62 1.78 1.92 1.93 1.81 2.01 2.03 2.01 2.23 2.35 2.22 2.47 2.86 2.57 2.52 2.14 2.08 1.94 1.86 1.88 1.74 1.73 2.02 2.23 2.07 1.91 1.66 1.74 2.06 1.91 1.67 1.90 1.63 1.45 1.45 1.20 0.98 0.92 0.90 0.80 0.76 0.73
3.16 3.36 2.42 2.60 2.34 2.33 2.43 2.23 1.86 1.68 1.56 1.63 1.88 2.00 2.12 2.51 2.37 2.29 1.93 1.55 1.80 1.82 1.90 1.88 1.92 2.19 2.26 2.09 1.87 1.60 1.56 1.66 1.64 1.64 1.57 1.64 1.83 1.50 1.55 1.75 1.75 1.49 1.43
2.18 2.76 2.74 2.63 2.96 2.30 1.99 2.20 2.19 1.72 1.60 1.49 1.45 1.63 1.82 1.77 2.03 2.25 2.40 2.10 1.73 1.54 1.48 1.70 1.74 1.85 2.18 2.35 2.45 2.40 2.09 1.88 1.70 1.77 1.80 1.81 1.78 1.92 1.88 1.99 2.53 2.31 1.82
1.35 1.47 1.79 2.34 2.48 2.37 2.42 2.39 2.05 2.02 2.09 1.82 1.68 1.44 1.46 1.79 2.16 2.09 2.14 2.14 2.03 2.02 1.70 1.52 1.77 2.05 2.06 2.03 2.28 2.53 2.68 2.63 2.64 2.54 2.45 2.48 2.14 1.53 1.70 1.92 2.30 2.37 2.38
0.73 0.92 0.87 0.83 1.08 1.49 1.68 1.57 1.25 1.50 1.81 1.59 1.81 1.40 1.32 1.24 1.94 2.08 2.10 2.14 2.03 2.03 2.20 1.99 1.92 2.19 2.12 2.25 2.32 2.30 2.35 2.67 2.65 2.54 2.68 2.62 2.38 2.34 2.11 2.20 2.47 2.58 2.48
0.68 0.79 0.75 0.68 0.82 0.86 1.13 1.27 1.32 1.22 1.46 1.51 1.54 1.36 1.03 0.87 1.16 1.13 1.39 1.44 1.76 1.98 1.96 2.02 1.91 1.93 1.83 1.49 1.85 1.90 1.89 2.16 2.47 2.39 2.38 2.48 2.59 2.60 2.51 2.51 2.59 2.89 2.94
0.90 0.94 1.01 0.94 0.90 0.94 1.06 1.09 1.46 1.83 1.58 1.31 1.16 1.02 0.97 0.99 1.01 0.92 1.05 0.78 0.82 0.87 0.83 0.79 0.76 0.80 1.21 1.25 1.20 1.53 1.82 2.17 2.47 2.66 2.96 3.22 3.25 2.99 2.92 2.90 2.65 2.66 2.70
0.89 1.00 1.04 1.16 1.29 1.29 1.32 1.51 1.55 1.49 1.34 1.22 1.06 0.98 0.84 0.78 1.04 0.86 0.83 0.57 0.70 0.76 0.73 0.79 0.87 0.66 1.30 1.13 0.72 0.86 1.13 1.37 1.94 2.03 2.08 2.22 2.27 2.06 1.97 2.16 2.72 3.11 3.05
0.78 0.96 1.11 1.23 1.53 1.80 1.99 1.85 1.58 1.51 1.61 1.56 1.44 1.28 1.25 0.86 1.14 1.02 0.97 0.78 0.91 0.93 0.91 1.00 1.62 1.24 1.63 1.29 1.12 1.12 1.34 1.45 1.41 1.43 1.48 1.45 1.37 1.37 1.65 1.48 1.72 2.50 3.06
0.82 0.89 1.15 1.42 1.48 1.67 1.82 1.92 1.98 1.95 1.82 1.80 1.79 1.66 1.54 1.41 1.33 1.30 1.24 1.06 1.18 1.27 1.31 1.25 1.39 1.89 1.32 1.32 1.38 1.33 1.99 1.95 2.01 1.60 1.51 1.56 1.43 1.31 1.30 1.39 1.48 1.88 2.32
0.60 0.69 0.77 0.87 1.14 1.28 1.45 1.64 1.62 1.61 1.65 1.58 1.50 1.47 1.33 1.39 1.64 1.50 1.25 1.28 1.50 1.32 1.54 1.72 2.08 2.05 1.51 1.45 1.56 2.09 2.36 1.94 1.55 1.53 1.53 1.57 1.59 1.63 1.64 1.61 1.66 1.69 1.78
0.50 0.66 0.77 0.75 0.83 1.03 1.12 1.18 1.18 1.21 1.20 1.16 1.12 1.14 1.13 1.04 1.08 1.22 1.23 1.30 1.40 1.36 1.63 1.94 1.99 1.72 1.54 1.61 1.91 2.04 2.08 2.18 2.43 2.56 2.57 2.47 2.22 1.97 1.74 1.64 1.52 1.50 1.51
0.46 0.54 0.62 0.67 0.73 0.73 0.75 0.70 0.66 0.73 0.76 0.86 0.93 0.96 0.96 0.97 0.95 0.93 0.94 1.00 1.17 1.33 1.61 1.77 1.76 1.70 1.69 1.86 1.94 1.93 2.00 2.13 2.22 2.34 2.30 2.20 1.99 1.81 1.73 1.70 1.65 1.61 1.61
0.38 0.44 0.45 0.44 0.43 0.41 0.44 0.52 0.50 0.66 0.68 0.71 0.85 0.99 1.13 1.32 1.49 1.37 1.28 1.38 1.50 1.62 1.66 1.83 1.83 1.78 1.74 1.72 1.66 1.67 1.70 1.69 1.67 1.64 1.56 1.49 1.41 1.30 1.21 1.13 1.17 1.12 1.14
0.34 0.34 0.41 0.43 0.43 0.40 0.40 0.54 0.68 0.75 0.78 0.85 0.94 0.97 1.24 1.38 1.46 1.39 1.39 1.41 1.42 1.42 1.49 1.51 1.53 1.50 1.46 1.41 1.32 1.23 1.10 1.03 0.94 0.86 0.80 0.73 0.69 0.66 0.60 0.53 0.59 0.61 0.60
0.34 0.34 0.38 0.46 0.49 0.50 0.53 0.52 0.62 0.91 0.99 1.09 1.15 1.20 1.14 1.32 1.26 1.18 1.10 1.05 1.06 0.99 1.08 1.06 1.04 0.95 0.84 0.72 0.66 0.62 0.63 0.57 0.47 0.44 0.42 0.35 0.29 0.24 0.21 0.22 0.21 0.20 0.20
0.72 0.77 0.73 0.77 0.84 0.93 1.01 1.15 1.25 1.31 1.48 1.73 1.67 1.43 1.32 1.21 1.13 1.06 0.94 0.83 0.84 0.69 0.62 0.57 0.55 0.47 0.40 0.36 0.33 0.31 0.32 0.27 0.24 0.18 0.16 0.17 0.19 0.22 0.23 0.18 0.16 0.17 0.17
0.78 1.00 1.09 1.13 1.22 1.25 1.25 1.28 1.28 1.22 1.15 1.14 1.08 0.97 0.91 0.78 0.65 0.61 0.55 0.62 0.55 0.47 0.39 0.37 0.35 0.34 0.35 0.32 0.34 0.31 0.36 0.34 0.34 0.36 0.32 0.35 0.36 0.39 0.35 0.32 0.30 0.23 0.22
0.93 1.08 1.09 1.12 1.13 1.07 0.99 0.88 0.80 0.77 0.72 0.67 0.62 0.63 0.57 0.48 0.50 0.48 0.45 0.44 0.41 0.38 0.32 0.31 0.29 0.28 0.28 0.27 0.28 0.29 0.29 0.28 0.28 0.31 0.26 0.24 0.23 0.25 0.25 0.22 0.20 0.21 0.16
0.83 0.84 0.80 0.73 0.70 0.68 0.65 0.61 0.58 0.55 0.56 0.51 0.51 0.48 0.36 0.36 0.40 0.35 0.31 0.32 0.29 0.26 0.26 0.22 0.20 0.20 0.19 0.19 0.19 0.21 0.20 0.20 0.22 0.30 0.27 0.26 0.29 0.27 0.23 0.23 0.19 0.16 0.14
0.49 0.47 0.45 0.46 0.45 0.44 0.39 0.37 0.38 0.33 0.31 0.29 0.28 0.25 0.16 0.22 0.26 0.29 0.30 0.30 0.28 0.25 0.23 0.22 0.20 0.17 0.17 0.21 0.22 0.25 0.23 0.21 0.21 0.24 0.19 0.17 0.19 0.21 0.22 0.21 0.19 0.17 0.15
0.34 0.35 0.36 0.35 0.33 0.32 0.31 0.29 0.31 0.33 0.34 0.34 0.32 0.33 0.31 0.34 0.32 0.31 0.31 0.30 0.25 0.25 0.23 0.25 0.26 0.21 0.20 0.25 0.29 0.30 0.29 0.23 0.25 0.33 0.28 0.22 0.19 0.18 0.21 0.20 0.19 0.20 0.19
0.50 0.43 0.40 0.40 0.38 0.37 0.39 0.40 0.38 0.35 0.36 0.41 0.43 0.40 0.35 0.34 0.37 0.36 0.33 0.31 0.30 0.28 0.27 0.30 0.28 0.25 0.21 0.21 0.23 0.25 0.26 0.26 0.31 0.33 0.33 0.34 0.25 0.20 0.23 0.21 0.18 0.19 0.19
0.32 0.53 0.64 0.59 0.61 0.62 0.61 0.57 0.55 0.51 0.50 0.49 0.45 0.37 0.30 0.28 0.26 0.24 0.22 0.19 0.18 0.18 0.16 0.17 0.17 0.15 0.14 0.17 0.18 0.19 0.19 0.19 0.23 0.23 0.31 0.32 0.27 0.25 0.27 0.27 0.23 0.23 0.20
0.18 0.28 0.43 0.53 0.63 0.74 0.81 0.80 0.77 0.73 0.67 0.55 0.48 0.42 0.33 0.27 0.22 0.18 0.16 0.13 0.13 0.11 0.11 0.13 0.13 0.10 0.10 0.14 0.16 0.19 0.14 0.12 0.15 0.18 0.27 0.30 0.30 0.30 0.30 0.27 0.26 0.31 0.22